• Join FlightAware (Why Join?)
  • Login
  • US Flag 
03:49PM EST


 

Airport Tracker/Info


-or-


 

Live Flight TrackerFlight Track Log ✈ SWA2068 ✈ 13-Jul-2013 ✈ KBWI - KALB

Flight Track Log - Related Links

Times and Time Zones

All times are in EDT time to prevent confusion due to time zone crossing. See the SWA2068 flight status page for this flight to view local times or setup timezone preferences in your user account.

Time Position Orientation Groundspeed Altitude Reporting Facility
EDT Latitude Longitude Course Direction KTS MPH feet Rate Location/Type
09:46AM 39.1683 -76.7400 148° Southeast 185 213 2,000  Level Washington Center
09:47AM 39.1311 -76.7100 148° Southeast 110 127 4,700 2,797 Climbing Washington Center
09:48AM 39.1383 -76.6111 85° East 146 168 7,500 2,773 Climbing Washington Center
09:49AM 39.1389 -76.5256 89° East 222 255 10,200 2,773 Climbing Washington Center
09:50AM 39.1464 -76.3811 86° East 273 314 13,000 2,950 Climbing Washington Center
09:51AM 39.1492 -76.2419 88° East 351 404 16,100 2,634 Climbing Washington Center
09:52AM 39.1644 -76.1136 81° East 383 441 18,400 2,471 Climbing Washington Center
09:53AM 39.1817 -75.9639 82° East 407 468 21,000 2,521 Climbing Washington Center
09:54AM 39.2278 -75.8247 67° East 412 474 23,400 2,066 Climbing Washington Center
09:55AM 39.3217 -75.7150 42° Northeast 418 481 25,200 2,218 Climbing Washington Center
09:56AM 39.4136 -75.5969 45° Northeast 441 507 27,800 1,932 Climbing Washington Center
09:57AM 39.5050 -75.4786 45° Northeast 441 507 29,000 355 Climbing Washington Center
09:59AM 39.7194 -75.2106 44° Northeast 446 513 29,000  Level New York Center
10:00AM 39.8222 -75.0764 45° Northeast 455 524 29,000  Level New York Center
10:01AM 39.9139 -74.9658 43° Northeast 455 524 29,000  Level New York Center
10:02AM 40.0097 -74.8497 43° Northeast 455 524 29,000  Level New York Center
10:03AM 40.0881 -74.7483 45° Northeast 446 513 29,000  Level New York Center
10:04AM 40.1883 -74.6236 44° Northeast 451 519 29,000  Level New York Center
10:05AM 40.2817 -74.5064 44° Northeast 451 519 29,000 -250 Level New York Center
10:06AM 40.3725 -74.3942 43° Northeast 451 519 28,500 -744 Descending New York Center
10:07AM 40.4617 -74.2789 45° Northeast 446 513 27,500 -975 Descending New York Center
10:10AM 40.6658 -74.0217 44° Northeast 436 502 25,200 -1,010 Descending Boston Center
10:11AM 40.7528 -73.9142 43° Northeast 429 494 24,100 -600 Descending Boston Center
10:12AM 40.8206 -73.8306 43° Northeast 418 481 24,000 -136 Descending Boston Center
10:13AM 40.9219 -73.7064 43° Northeast 413 475 23,800 -455 Descending Boston Center
10:14AM 41.0253 -73.5819 42° Northeast 418 481 23,000 -700 Descending Boston Center
10:15AM 41.1200 -73.4981 34° Northeast 413 475 22,400 -850 Descending Boston Center
10:16AM 41.2306 -73.4944 North 386 444 21,300 -1,050 Descending Boston Center
10:17AM 41.3408 -73.4961 359° North 386 444 20,300 -1,000 Descending Boston Center
10:18AM 41.4597 -73.5011 358° North 386 444 19,300 -950 Descending Boston Center
10:19AM 41.5658 -73.5056 358° North 381 438 18,400 -700 Descending Boston Center
10:20AM 41.6408 -73.5094 358° North 381 438 17,900 -850 Descending Boston Center
10:21AM 41.7783 -73.5147 358° North 381 438 16,700 -1,600 Descending Boston Center
10:22AM 41.8847 -73.5164 359° North 381 438 14,700 -1,929 Descending Boston Center
10:23AM 41.9764 -73.5264 355° North 372 428 13,100 -1,755 Descending Boston Center
10:24AM 42.0700 -73.5253 North 359 413 11,600 -1,096 Descending Boston Center
10:25AM 42.1572 -73.5603 343° North 329 379 11,000 -836 Descending Boston Center
10:26AM 42.2381 -73.6067 337° Northwest 310 357 9,900 -1,228 Descending Boston Center
10:27AM 42.3250 -73.6589 336° Northwest 313 360 8,400 -1,318 Descending Boston Center
10:28AM 42.4100 -73.7083 337° Northwest 302 348 7,000 -1,377 Descending Boston Center
10:29AM 42.4803 -73.7519 335° Northwest 291 335 5,600 -1,350 Descending Boston Center
10:30AM 42.5383 -73.7869 336° Northwest 283 326 4,300 -1,438 Descending Boston Center
10:31AM 42.6111 -73.8028 351° North 217 250 2,700 -1,339 Descending Boston Center
10:32AM 42.6589 -73.8036 359° North 171 197 1,800 -887 Descending Boston Center
10:33AM 42.7006 -73.8075 356° North 139 160 1,000 -800 Descending Boston Center
10:39AM 42.7491 -73.8020 156° South  Level Estimated